DW5513 Weather Reports


Display with metric or nautical units.
time (UTC)temp
F
wind
direction
speed
MPH
gust
MPH
rain 1hr
in
rain 24hr
in
rain mn
in
humidity
%
barometer
mb
20260503184604 52 1 4.0 11.0 0.00 0.00 0.00 39 1011.2
20260503183057 51 309 4.0 12.0 0.00 0.00 0.00 39 1011.3
20260503181543 51 328 2.0 11.0 0.00 0.00 0.00 39 1011.3
20260503180043 50 312 3.0 9.0 0.00 0.00 0.00 40 1011.4
20260503174539 50 207 4.0 11.0 0.00 0.00 0.00 41 1011.5
20260503173040 49 277 3.0 11.0 0.00 0.00 0.00 43 1011.8
20260503171535 49 309 4.0 11.0 0.00 0.00 0.00 44 1011.9
20260503081534 37 337 0.0 3.0 0.00 0.00 0.00 82 1012.8
20260503071526 37 238 0.0 1.0 0.00 0.00 0.00 80 1012.8
20260503054517 37 323 0.0 3.0 0.00 0.02 0.00 79 1013.3
20260503053015 38 312 0.0 2.0 0.00 0.02 0.00 79 1013.4
20260503051510 38 253 1.0 5.0 0.00 0.02 0.00 78 1013.6
20260503050025 38 274 0.0 4.0 0.00 0.02 0.00 78 1013.8
20260503044507 37 352 0.0 5.0 0.00 0.02 0.00 78 1013.9
20260503043005 37 122 0.0 2.0 0.00 0.02 0.00 78 1014.1
20260503041501 36 19 0.0 4.0 0.00 0.02 0.00 78 1014.1
20260503034558 35 9 0.0 1.0 0.00 0.04 0.02 78 1014.1
20260503033132 35 348 0.0 1.0 0.00 0.04 0.02 77 1014.3
20260503031600 35 347 0.0 1.0 0.00 0.04 0.02 77 1014.2
20260503030104 36 347 0.0 1.0 0.00 0.04 0.02 76 1014.1
20260503024613 37 299 0.0 0.0 0.00 0.05 0.02 73 1014.1
20260503023049 37 38 0.0 2.0 0.00 0.05 0.02 71 1014.1
20260503021553 37 309 0.0 1.0 0.00 0.05 0.02 72 1014.1
20260503020049 37 327 0.0 0.0 0.00 0.05 0.02 72 1014.1
20260503014545 38 327 0.0 1.0 0.00 0.05 0.02 70 1014.1
20260503013044 38 322 0.0 1.0 0.00 0.05 0.02 69 1014.0
20260503011545 39 295 0.0 1.0 0.00 0.05 0.02 68 1013.9
20260503010039 40 295 0.0 2.0 0.00 0.05 0.02 65 1013.8
20260503004542 40 252 0.0 1.0 0.00 0.05 0.02 64 1013.8
20260503003037 41 235 0.0 1.0 0.00 0.05 0.02 63 1013.6
20260503001539 42 247 0.0 2.0 0.00 0.05 0.02 62 1013.5
20260503000036 43 243 0.0 3.0 0.00 0.05 0.02 60 1013.5
20260502234535 44 242 0.0 3.0 0.00 0.05 0.02 60 1013.5
20260502233043 46 266 1.0 3.0 0.00 0.05 0.02 55 1013.4
20260502231553 45 258 1.0 3.0 0.00 0.05 0.02 58 1013.4
20260502230033 45 311 1.0 4.0 0.00 0.05 0.02 57 1013.4
20260502224532 47 13 1.0 6.0 0.00 0.05 0.02 55 1013.3
20260502223031 45 304 2.0 7.0 0.00 0.05 0.02 60 1013.4
20260502221530 45 19 2.0 8.0 0.00 0.05 0.02 60 1013.3
20260502220037 46 300 4.0 9.0 0.00 0.05 0.02 58 1013.2
20260502214529 46 48 4.0 10.0 0.00 0.05 0.02 55 1013.2
20260502213029 46 214 2.0 8.0 0.00 0.05 0.02 55 1013.1
20260502211540 46 311 3.0 9.0 0.00 0.05 0.02 56 1013.0
20260502210028 46 309 1.0 7.0 0.00 0.05 0.02 56 1013.0
20260502204526 47 311 1.0 7.0 0.00 0.05 0.02 55 1013.0
20260502203026 47 199 1.0 10.0 0.00 0.05 0.02 56 1013.0
20260502201525 47 306 1.0 9.0 0.00 0.05 0.02 56 1013.2
20260502200024 48 339 1.0 7.0 0.00 0.05 0.02 54 1013.3
20260502194523 46 326 3.0 10.0 0.00 0.05 0.02 57 1013.5
20260502193025 46 310 2.0 8.0 0.00 0.05 0.02 57 1013.7
20260502191524 46 330 1.0 6.0 0.00 0.05 0.02 55 1013.7
20260502190022 47 269 2.0 7.0 0.00 0.05 0.02 52 1013.7